Weather History for Oxford, MS

Change the Weather History Date:

Wednesday, January 16, 2013

  Actual Average Record
Temperature  
Mean Temperature 30 °F -  
Max Temperature 32 °F 49 °F 79 °F (1943)
Min Temperature 28 °F 26 °F 5 °F (1972)
Degree Days  
Heating Degree Days 35    
Moisture  
Dew Point 30 °F    
Average Humidity 94    
Maximum Humidity 100    
Minimum Humidity 87    
Precipitation  
Precipitation 0.01 in - - ()
Sea Level Pressure  
Sea Level Pressure 30.13 in    
Wind  
Wind Speed 0 mph (North)    
Max Wind Speed 0 mph    
Max Gust Speed -    
Visibility 3 miles    
Events Rain    
Averages and records for this station are not official NWS values.
T = Trace of Precipitation, MM = Missing Value Source: NWS Daily Summary

Daily Weather History Graph

Daily Weather History Graph

Search for Another Location

Airport:

Trip Planner

Search our weather history database for the weather conditions in past years. The results will help you decide how hot, cold, wet, or windy it might be!

Date:

Astronomy

Jan. 16, 2013 Rise Set
Actual Time 7:03 AM CST 5:12 PM CST
Civil Twilight 6:36 AM CST 5:39 PM CST
Nautical Twilight 6:05 AM CST 6:10 PM CST
Astronomical Twilight 5:35 AM CST 6:40 PM CST
Moon 9:56 AM CST (1/16) 10:46 PM CST (1/16)
Length of Visible Light 11h 02m
Length of Day
10h 08m
Waxing Crescent, 28% of the Moon is Illuminated
Jan 16
Waxing Crescent
Jan 18
First Quarter
Jan 26
Full
Feb 3
Last Quarter
Feb 10
New

Hourly Weather History & Observations

Time (CST) Temp. Dew Point Humidity Pressure Visibility Wind Dir Wind Speed Gust Speed Precip Events Conditions
12:15 AM 32.0 °F 30.2 °F 93% 30.09 in 5.0 mi Calm Calm - N/A Rain Light Rain
12:35 AM 32.0 °F 30.2 °F 93% 30.10 in 5.0 mi Calm Calm - N/A Rain Light Rain
12:55 AM 32.0 °F 28.4 °F 87% 30.09 in 5.0 mi Calm Calm - N/A   Overcast
1:15 AM 32.0 °F 28.4 °F 87% 30.08 in 5.0 mi Calm Calm - N/A   Overcast
1:35 AM 30.2 °F 28.4 °F 93% 30.08 in 5.0 mi Calm Calm - N/A Rain Light Freezing Rain
1:55 AM 30.2 °F 28.4 °F 93% 30.10 in 3.0 mi Calm Calm - 0.01 in Rain Light Freezing Rain
2:15 AM 32.0 °F 30.2 °F 93% 30.11 in 3.0 mi Calm Calm - N/A Rain Light Rain
2:35 AM 30.2 °F 28.4 °F 93% 30.10 in 4.0 mi Calm Calm - N/A Rain Light Freezing Rain
2:55 AM 30.2 °F 28.4 °F 93% 30.06 in 4.0 mi Calm Calm - N/A   Overcast
3:15 AM 30.2 °F 28.4 °F 93% 30.07 in 3.0 mi Calm Calm - N/A   Overcast
3:35 AM 30.2 °F 28.4 °F 93% 30.06 in 3.0 mi Calm Calm - N/A   Overcast
3:55 AM 30.2 °F 28.4 °F 93% 30.08 in 2.5 mi Calm Calm - N/A   Overcast
4:15 AM 30.2 °F 30.2 °F 100% 30.11 in 2.5 mi Calm Calm - N/A   Overcast
4:35 AM 30.2 °F 30.2 °F 100% 30.10 in 2.0 mi Calm Calm - N/A   Overcast
4:55 AM 30.2 °F 28.4 °F 93% 30.10 in 1.8 mi Calm Calm - N/A   Overcast
5:15 AM 30.2 °F 28.4 °F 93% 30.11 in 2.5 mi Calm Calm - N/A   Overcast
5:35 AM 30.2 °F 28.4 °F 93% 30.12 in 1.0 mi Calm Calm - N/A   Overcast
5:55 AM 30.2 °F 28.4 °F 93% 30.12 in 1.2 mi Calm Calm - N/A   Overcast
6:15 AM 28.4 °F 28.4 °F 100% 30.12 in 3.0 mi Calm Calm - N/A   Overcast
6:35 AM 28.4 °F 28.4 °F 100% 30.14 in 3.0 mi Calm Calm - N/A   Overcast
6:55 AM 28.4 °F 28.4 °F 100% 30.15 in 3.0 mi Calm Calm - N/A   Overcast
7:15 AM 28.4 °F 28.4 °F 100% 30.13 in 3.0 mi North - - N/A   Overcast
7:35 AM 28.4 °F 28.4 °F 100% 30.11 in 1.8 mi North - - N/A   Overcast
7:55 AM 28.4 °F 28.4 °F 100% 30.13 in 2.0 mi North - - N/A   Overcast
8:15 AM 30.2 °F 28.4 °F 93% 30.15 in 1.8 mi North - - N/A   Overcast
8:35 AM 30.2 °F 28.4 °F 93% 30.17 in 1.8 mi North - - N/A   Overcast
8:55 AM 30.2 °F 28.4 °F 93% 30.16 in 2.0 mi North - - N/A   Overcast
9:15 AM 30.2 °F 28.4 °F 93% 30.18 in 2.0 mi North - - N/A   Overcast
9:35 AM 30.2 °F 28.4 °F 93% 30.18 in 2.0 mi North - - N/A   Overcast
9:55 AM 32.0 °F 30.2 °F 93% 30.18 in 2.0 mi North - - N/A   Overcast
10:15 AM 32.0 °F 30.2 °F 93% 30.14 in 2.0 mi North - - N/A   Overcast
10:35 AM 32.0 °F 30.2 °F 93% 30.14 in 2.0 mi North - - N/A   Overcast
10:55 AM 32.0 °F 30.2 °F 93% 30.15 in 2.5 mi North - - N/A   Overcast
11:15 AM 32.0 °F 30.2 °F 93% 30.14 in 2.5 mi North - - N/A   Overcast
11:35 AM 32.0 °F 30.2 °F 93% 30.12 in 1.8 mi North - - N/A Rain Light Rain
11:55 AM 32.0 °F 30.2 °F 93% 30.12 in 1.8 mi North - - N/A Rain Light Rain
12:15 PM 32.0 °F 30.2 °F 93% 30.12 in 1.8 mi North - - N/A Rain Light Rain
12:35 PM 32.0 °F 30.2 °F 93% 30.13 in 1.5 mi North - - N/A Rain Light Rain
12:55 PM 32.0 °F 30.2 °F 93% 30.13 in 1.8 mi North - - N/A Rain Light Rain
1:15 PM 32.0 °F 30.2 °F 93% 30.14 in 1.5 mi North - - N/A Rain Light Rain
1:35 PM 32.0 °F 30.2 °F 93% 30.11 in 1.8 mi North - - N/A Rain Light Rain
1:55 PM 32.0 °F 30.2 °F 93% 30.11 in 2.0 mi North - - N/A   Overcast
2:15 PM 32.0 °F 30.2 °F 93% 30.10 in 1.8 mi North - - N/A   Overcast
2:35 PM 32.0 °F 30.2 °F 93% 30.13 in 1.8 mi North - - N/A   Overcast
2:55 PM 32.0 °F 30.2 °F 93% 30.13 in 2.0 mi North - - N/A   Overcast
3:15 PM 32.0 °F 30.2 °F 93% 30.12 in 1.8 mi North - - N/A Rain Light Rain
3:35 PM 32.0 °F 30.2 °F 93% 30.12 in 2.0 mi North - - N/A Rain Light Rain
4:15 PM 32.0 °F 30.2 °F 93% 30.12 in 2.0 mi North - - N/A   Overcast
4:35 PM 32.0 °F 30.2 °F 93% 30.12 in 2.0 mi North - - N/A   Overcast
4:55 PM 32.0 °F 30.2 °F 93% 30.11 in 1.8 mi North - - N/A   Overcast
5:15 PM 32.0 °F 30.2 °F 93% 30.13 in 2.5 mi North - - N/A   Overcast
5:35 PM 32.0 °F 30.2 °F 93% 30.13 in 3.0 mi North - - N/A   Overcast
5:55 PM 32.0 °F 30.2 °F 93% 30.13 in 3.0 mi North - - N/A   Overcast
6:15 PM 32.0 °F 30.2 °F 93% 30.14 in 2.5 mi North - - N/A   Overcast
6:35 PM 32.0 °F 30.2 °F 93% 30.14 in 3.0 mi North - - N/A   Overcast
6:55 PM 32.0 °F 30.2 °F 93% 30.15 in 3.0 mi North - - N/A   Overcast
7:15 PM 32.0 °F 30.2 °F 93% 30.15 in 3.0 mi North - - N/A   Overcast
7:35 PM 32.0 °F 30.2 °F 93% 30.15 in 3.0 mi North - - N/A   Mostly Cloudy
7:55 PM 32.0 °F 30.2 °F 93% 30.15 in 3.0 mi North - - N/A   Mostly Cloudy
8:15 PM 32.0 °F 30.2 °F 93% 30.15 in 3.0 mi North - - N/A   Overcast
8:35 PM 32.0 °F 30.2 °F 93% 30.16 in 3.0 mi North - - N/A   Overcast
8:55 PM 32.0 °F 30.2 °F 93% 30.16 in 3.0 mi North - - N/A   Overcast
9:15 PM 32.0 °F 30.2 °F 93% 30.16 in 3.0 mi North - - N/A   Overcast
9:35 PM 32.0 °F 30.2 °F 93% 30.16 in 3.0 mi North - - N/A   Overcast
9:55 PM 32.0 °F 30.2 °F 93% 30.15 in 3.0 mi North - - N/A   Overcast
10:15 PM 32.0 °F 30.2 °F 93% 30.15 in 3.0 mi North - - N/A   Mostly Cloudy
10:35 PM 32.0 °F 30.2 °F 93% 30.15 in 3.0 mi North - - N/A   Mostly Cloudy
10:55 PM 32.0 °F 30.2 °F 93% 30.15 in 3.0 mi North - - N/A   Overcast
11:15 PM 32.0 °F 30.2 °F 93% 30.14 in 2.5 mi North - - N/A   Overcast
11:35 PM 32.0 °F 30.2 °F 93% 30.14 in 2.5 mi North - - N/A   Overcast
11:55 PM 32.0 °F 30.2 °F 93% 30.14 in 3.0 mi North - - N/A   Overcast